Regional Weather Roundup
Issued by NWS Nashville, TN

Home | Current Version | Previous Version | Text Only | Print | Product List | Glossary On
Versions: 1 2 3 4 5 6 7 8 9 10 11 12 13 14 15 16 17 18 19 20 21 22 23 24 25 26 27 28 29 30 31 32 33 34 35 36 37 38 39 40 41 42 43 44 45 46 47 48 49 50
000
ASUS44 KOHX 271215
RWROHX
MIDDLE TENNESSEE HOURLY WEATHER ROUNDUP
NATIONAL WEATHER SERVICE NASHVILLE TN
600 AM CST THU NOV 27 2014

NOTE: "FAIR" INDICATES FEW OR NO CLOUDS BELOW 12,000 FEET WITH
NO SIGNIFICANT WEATHER AND/OR OBSTRUCTIONS TO VISIBILITY.

* THESE REPORTS ARE NOT UNDER NWS QUALITY CONTROL AND MAY NOT
  REPORT WEATHER SUCH AS PRECIPITATION AND FOG.


TNZ005>011-023>034-057-059-062>066-078-080-271300
...NORTHERN MIDDLE TENNESSEE...

CITY           SKY/WX    TMP DP  RH WIND       PRES   REMARKS
CLARKSVILLE    CLOUDY    35  33  92 NW9       30.30R FOG     WCI  28
CROSSVILLE     LGT SNOW  33  29  85 W14       30.13R FOG     WCI  23
GALLATIN       CLOUDY    35  32  89 NW9       30.25R WCI  28
DICKSON        CLOUDY    34  30  86 NW8       30.26R WCI  27
LEBANON        CLOUDY    35  32  89 NW15      30.22R WCI  25
NASHVILLE      CLOUDY    37  32  82 NW13G22   30.27R WCI  29
WEST NASHVILLE CLOUDY    34  34 100 NW9       30.27R WCI  26
PORTLAND       CLOUDY    32  30  93 NW10      30.23  WCI  24
SPARTA         CLOUDY    34  32  93 NW5       30.19R WCI  30
$$
TNZ056-058-060-061-075>077-079-093>097-271300
...SOUTHERN MIDDLE TENNESSEE...

CITY           SKY/WX    TMP DP  RH WIND       PRES   REMARKS
COLUMBIA       CLOUDY    36  36 100 VRB6      30.25R WCI  31
LEWISBURG      CLOUDY    38  33  82 NW10      30.25R WCI  31
MCMINNVILLE    CLOUDY    36  32  87 NW13      30.22R WCI  27
MURFREESBORO   CLOUDY    36  31  82 NW10      30.24R WCI  28
SHELBYVILLE    CLOUDY    37  34  87 N14       30.25R WCI  29
TULLAHOMA      CLOUDY    36  32  87 NW10      30.22R WCI  28
WINCHESTER     CLOUDY    37  34  87 NW12      30.22R WCI  30
$$


...KEY TO REMARKS...
VSB - VISIBILITY IN MILES
WCI - WIND CHILL INDEX
HX  - HEAT INDEX



USA.gov is the U.S. government's official web portal to all federal, state and local government web resources and services.